| time (UTC) | temp C | wind direction | speed KPH | gust KPH | rain 1hr cm | rain 24hr cm | rain mn cm | humidity % | barometer mb |
| 20260509210318 | 22 | 9 | 6.4 | 6.4 | 0.00 | 0.00 | 0.00 | 59 | 1001.3 |
| 20260509205747 | 22 | 358 | 4.8 | 6.4 | 0.00 | 0.00 | 0.00 | 58 | 1001.0 |
| 20260509205134 | 22 | 299 | 4.8 | 4.8 | 0.00 | 0.00 | 0.00 | 57 | 1001.0 |
| 20260509204537 | 22 | 296 | 1.6 | 1.6 | 0.00 | 0.00 | 0.00 | 60 | 1001.0 |
| 20260509203950 | 22 | 308 | 6.4 | 9.7 | 0.00 | 0.00 | 0.00 | 59 | 1001.3 |
| 20260509203321 | 21 | 3 | 3.2 | 3.2 | 0.00 | 0.00 | 0.00 | 60 | 1001.3 |
| 20260509202753 | 22 | 320 | 3.2 | 3.2 | 0.00 | 0.00 | 0.00 | 61 | 1001.0 |
| 20260509202126 | 22 | 290 | 9.7 | 12.9 | 0.00 | 0.00 | 0.00 | 57 | 1001.3 |
| 20260509201532 | 22 | 341 | 6.4 | 6.4 | 0.00 | 0.00 | 0.00 | 59 | 1001.3 |
| 20260509200939 | 21 | 302 | 6.4 | 9.7 | 0.00 | 0.00 | 0.00 | 63 | 1001.0 |
| 20260509200309 | 22 | 5 | 6.4 | 6.4 | 0.00 | 0.00 | 0.00 | 60 | 1001.3 |
| 20260509195125 | 22 | 345 | 6.4 | 9.7 | 0.00 | 0.00 | 0.00 | 62 | 1001.3 |
| 20260509193915 | 21 | 301 | 4.8 | 4.8 | 0.00 | 0.00 | 0.00 | 64 | 1001.6 |
| 20260509193337 | 21 | 355 | 3.2 | 3.2 | 0.00 | 0.00 | 0.00 | 66 | 1001.6 |
| 20260509192748 | 21 | 13 | 8.0 | 11.3 | 0.00 | 0.00 | 0.00 | 62 | 1001.6 |
| 20260509191528 | 21 | 351 | 6.4 | 11.3 | 0.00 | 0.00 | 0.00 | 62 | 1001.6 |
| 20260509190313 | 21 | 322 | 6.4 | 6.4 | 0.00 | 0.00 | 0.00 | 64 | 1001.6 |
| 20260509185750 | 21 | 1 | 6.4 | 12.9 | 0.00 | 0.00 | 0.00 | 63 | 1001.6 |
| 20260509185114 | 21 | 348 | 3.2 | 4.8 | 0.00 | 0.00 | 0.00 | 64 | 1001.6 |
| 20260509184531 | 21 | 352 | 1.6 | 3.2 | 0.00 | 0.00 | 0.00 | 66 | 1001.6 |
| 20260509183936 | 21 | 329 | 4.8 | 4.8 | 0.00 | 0.00 | 0.00 | 68 | 1001.6 |
| 20260509183343 | 20 | 19 | 8.0 | 9.7 | 0.00 | 0.00 | 0.00 | 66 | 1001.6 |
| 20260509182727 | 20 | 13 | 6.4 | 9.7 | 0.00 | 0.00 | 0.00 | 68 | 1001.6 |
| 20260509182153 | 20 | 303 | 9.7 | 12.9 | 0.00 | 0.00 | 0.00 | 66 | 1001.6 |
| 20260509181515 | 20 | 26 | 6.4 | 6.4 | 0.00 | 0.00 | 0.00 | 69 | 1001.6 |
| 20260509180942 | 20 | 9 | 6.4 | 6.4 | 0.00 | 0.00 | 0.00 | 67 | 1001.6 |
| 20260509180315 | 20 | 357 | 8.0 | 11.3 | 0.00 | 0.00 | 0.00 | 67 | 1001.6 |
| 20260509175737 | 19 | 319 | 4.8 | 4.8 | 0.00 | 0.00 | 0.00 | 69 | 1001.6 |
| 20260509175152 | 19 | 332 | 6.4 | 9.7 | 0.00 | 0.00 | 0.00 | 68 | 1001.6 |
| 20260509174526 | 19 | 342 | 6.4 | 6.4 | 0.00 | 0.00 | 0.00 | 70 | 1002.0 |
| 20260509173310 | 19 | 352 | 3.2 | 3.2 | 0.00 | 0.00 | 0.00 | 69 | 1002.0 |
| 20260509172726 | 18 | 323 | 4.8 | 4.8 | 0.00 | 0.00 | 0.00 | 71 | 1002.0 |
| 20260509171510 | 17 | 14 | 3.2 | 4.8 | 0.00 | 0.00 | 0.00 | 70 | 1002.0 |
| 20260509170921 | 18 | 325 | 6.4 | 9.7 | 0.00 | 0.00 | 0.00 | 70 | 1002.0 |
| 20260509170323 | 18 | 350 | 6.4 | 11.3 | 0.00 | 0.00 | 0.00 | 69 | 1002.3 |
| 20260509165719 | 17 | 328 | 3.2 | 3.2 | 0.00 | 0.00 | 0.00 | 68 | 1002.3 |
| 20260509165132 | 17 | 321 | 6.4 | 6.4 | 0.00 | 0.00 | 0.00 | 70 | 1002.3 |
| 20260509164539 | 17 | 13 | 3.2 | 4.8 | 0.00 | 0.00 | 0.00 | 71 | 1002.3 |
| 20260509163934 | 17 | 12 | 3.2 | 3.2 | 0.00 | 0.00 | 0.00 | 71 | 1002.7 |
| 20260509162115 | 17 | 344 | 4.8 | 6.4 | 0.00 | 0.00 | 0.00 | 70 | 1002.3 |
| 20260509161540 | 17 | 273 | 3.2 | 3.2 | 0.00 | 0.00 | 0.00 | 72 | 1002.7 |
| 20260509160930 | 17 | 299 | 4.8 | 6.4 | 0.00 | 0.00 | 0.00 | 71 | 1002.7 |
| 20260509160345 | 17 | 330 | 3.2 | 3.2 | 0.00 | 0.00 | 0.00 | 72 | 1002.3 |
| 20260509155716 | 17 | 341 | 1.6 | 3.2 | 0.00 | 0.00 | 0.00 | 71 | 1002.0 |
| 20260509154540 | 17 | 356 | 3.2 | 3.2 | 0.00 | 0.00 | 0.00 | 69 | 1002.0 |
| 20260509153940 | 17 | 307 | 3.2 | 3.2 | 0.00 | 0.00 | 0.00 | 71 | 1002.0 |
| 20260509153324 | 17 | 327 | 3.2 | 4.8 | 0.00 | 0.00 | 0.00 | 72 | 1002.0 |
| 20260509152127 | 16 | 314 | 1.6 | 3.2 | 0.00 | 0.00 | 0.00 | 71 | 1002.0 |
| 20260509150915 | 16 | 318 | 0.0 | 1.6 | 0.00 | 0.00 | 0.00 | 73 | 1002.0 |
| 20260509150315 | 16 | 315 | 1.6 | 1.6 | 0.00 | 0.00 | 0.00 | 74 | 1002.0 |
| 20260509145740 | 16 | 281 | 0.0 | 0.0 | 0.00 | 0.00 | 0.00 | 77 | 1002.0 |
| 20260509145127 | 16 | 264 | 0.0 | 0.0 | 0.00 | 0.00 | 0.00 | 76 | 1002.0 |
| 20260509144508 | 16 | 275 | 0.0 | 0.0 | 0.00 | 0.00 | 0.00 | 79 | 1002.0 |
| 20260509143907 | 15 | 277 | 0.0 | 0.0 | 0.00 | 0.00 | 0.00 | 77 | 1002.0 |
| 20260509142746 | 15 | 270 | 0.0 | 0.0 | 0.00 | 0.00 | 0.00 | 79 | 1002.0 |
| 20260509141517 | 15 | 279 | 0.0 | 0.0 | 0.00 | 0.00 | 0.00 | 82 | 1002.0 |
| 20260509140924 | 15 | 292 | 0.0 | 0.0 | 0.00 | 0.00 | 0.00 | 82 | 1002.3 |
| 20260509140344 | 15 | 280 | 0.0 | 0.0 | 0.00 | 0.00 | 0.00 | 81 | 1002.3 |
| 20260509135710 | 15 | 279 | 0.0 | 0.0 | 0.00 | 0.00 | 0.00 | 81 | 1002.7 |
| 20260509135112 | 15 | 273 | 0.0 | 0.0 | 0.00 | 0.00 | 0.00 | 80 | 1002.7 |
| 20260509134545 | 15 | 287 | 0.0 | 0.0 | 0.00 | 0.00 | 0.00 | 78 | 1002.7 |
| 20260509133914 | 15 | 300 | 1.6 | 1.6 | 0.00 | 0.00 | 0.00 | 79 | 1002.7 |
| 20260509132743 | 15 | 289 | 1.6 | 3.2 | 0.00 | 0.00 | 0.00 | 80 | 1002.0 |
| 20260509132132 | 15 | 273 | 0.0 | 1.6 | 0.00 | 0.00 | 0.00 | 80 | 1001.6 |
| 20260509131511 | 15 | 275 | 0.0 | 1.6 | 0.00 | 0.00 | 0.00 | 81 | 1002.0 |
| 20260509130917 | 14 | 259 | 0.0 | 1.6 | 0.00 | 0.00 | 0.00 | 82 | 1001.6 |
| 20260509130311 | 14 | 234 | 1.6 | 1.6 | 0.00 | 0.00 | 0.00 | 81 | 1001.6 |
| 20260509125721 | 14 | 263 | 0.0 | 1.6 | 0.00 | 0.00 | 0.00 | 82 | 1002.0 |
| 20260509125123 | 13 | 274 | 1.6 | 1.6 | 0.00 | 0.00 | 0.00 | 85 | 1002.3 |
| 20260509123935 | 13 | 286 | 1.6 | 1.6 | 0.00 | 0.00 | 0.00 | 85 | 1002.0 |
| 20260509123351 | 13 | 288 | 1.6 | 1.6 | 0.00 | 0.00 | 0.00 | 86 | 1002.0 |
| 20260509122746 | 13 | 272 | 0.0 | 0.0 | 0.00 | 0.00 | 0.00 | 87 | 1002.0 |
| 20260509122142 | 13 | 265 | 0.0 | 0.0 | 0.00 | 0.00 | 0.00 | 86 | 1002.3 |
| 20260509121510 | 13 | 265 | 0.0 | 0.0 | 0.00 | 0.00 | 0.00 | 87 | 1002.3 |
| 20260509120914 | 12 | 263 | 0.0 | 0.0 | 0.00 | 0.00 | 0.00 | 87 | 1002.3 |
| 20260509120320 | 12 | 257 | 0.0 | 1.6 | 0.00 | 0.00 | 0.00 | 88 | 1002.3 |
| 20260509115739 | 12 | 266 | 0.0 | 0.0 | 0.00 | 0.00 | 0.00 | 88 | 1002.3 |
| 20260509115121 | 12 | 250 | 0.0 | 0.0 | 0.00 | 0.00 | 0.00 | 88 | 1002.3 |
| 20260509113926 | 12 | 276 | 0.0 | 0.0 | 0.00 | 0.00 | 0.00 | 89 | 1002.0 |
| 20260509113325 | 12 | 276 | 0.0 | 0.0 | 0.00 | 0.00 | 0.00 | 90 | 1002.0 |
| 20260509112131 | 11 | 268 | 0.0 | 0.0 | 0.00 | 0.00 | 0.00 | 90 | 1002.0 |
| 20260509110934 | 11 | 269 | 0.0 | 0.0 | 0.00 | 0.00 | 0.00 | 90 | 1002.0 |
| 20260509110313 | 11 | 268 | 0.0 | 0.0 | 0.00 | 0.00 | 0.00 | 90 | 1002.0 |
| 20260509104545 | 11 | 262 | 0.0 | 0.0 | 0.00 | 0.00 | 0.00 | 90 | 1002.0 |
| 20260509103940 | 11 | 261 | 0.0 | 0.0 | 0.00 | 0.00 | 0.00 | 90 | 1001.6 |
| 20260509103313 | 11 | 286 | 0.0 | 0.0 | 0.00 | 0.00 | 0.00 | 90 | 1002.0 |
| 20260509102735 | 11 | 265 | 0.0 | 0.0 | 0.00 | 0.00 | 0.00 | 90 | 1002.0 |
| 20260509102123 | 11 | 258 | 0.0 | 0.0 | 0.00 | 0.00 | 0.00 | 90 | 1002.0 |
| 20260509101514 | 11 | 207 | 1.6 | 1.6 | 0.00 | 0.00 | 0.00 | 89 | 1001.6 |
| 20260509100920 | 11 | 210 | 1.6 | 3.2 | 0.00 | 0.00 | 0.00 | 89 | 1001.6 |
| 20260509100325 | 11 | 277 | 0.0 | 0.0 | 0.00 | 0.00 | 0.00 | 88 | 1001.3 |
| 20260509095736 | 11 | 274 | 0.0 | 0.0 | 0.00 | 0.00 | 0.00 | 88 | 1001.6 |
| 20260509095147 | 11 | 276 | 0.0 | 0.0 | 0.00 | 0.00 | 0.00 | 87 | 1001.6 |
| 20260509094533 | 11 | 283 | 0.0 | 0.0 | 0.00 | 0.00 | 0.00 | 87 | 1001.6 |
| 20260509093330 | 11 | 276 | 0.0 | 0.0 | 0.00 | 0.00 | 0.00 | 87 | 1001.6 |
| 20260509092117 | 11 | 271 | 0.0 | 0.0 | 0.00 | 0.00 | 0.00 | 86 | 1002.0 |
| 20260509090945 | 11 | 283 | 0.0 | 0.0 | 0.00 | 0.00 | 0.00 | 86 | 1001.6 |
| 20260509090350 | 11 | 284 | 1.6 | 1.6 | 0.00 | 0.00 | 0.00 | 85 | 1001.6 |
| 20260509085712 | 11 | 273 | 0.0 | 0.0 | 0.00 | 0.00 | 0.00 | 85 | 1001.3 |
| 20260509085139 | 11 | 262 | 0.0 | 0.0 | 0.00 | 0.00 | 0.00 | 86 | 1001.6 |
| 20260509084532 | 11 | 266 | 0.0 | 0.0 | 0.00 | 0.00 | 0.00 | 86 | 1001.6 |
| 20260509083918 | 11 | 266 | 0.0 | 0.0 | 0.00 | 0.00 | 0.00 | 86 | 1001.6 |
| 20260509083337 | 11 | 268 | 0.0 | 0.0 | 0.00 | 0.00 | 0.00 | 85 | 1001.6 |
| 20260509082747 | 11 | 268 | 0.0 | 0.0 | 0.00 | 0.00 | 0.00 | 84 | 1002.0 |
| 20260509080323 | 12 | 268 | 0.0 | 0.0 | 0.00 | 0.00 | 0.00 | 83 | 1002.0 |
| 20260509075754 | 12 | 266 | 0.0 | 0.0 | 0.00 | 0.00 | 0.00 | 82 | 1002.0 |
| 20260509075135 | 12 | 263 | 0.0 | 0.0 | 0.00 | 0.00 | 0.00 | 82 | 1002.0 |
| 20260509073323 | 12 | 269 | 0.0 | 0.0 | 0.00 | 0.00 | 0.00 | 81 | 1002.0 |
| 20260509072738 | 12 | 301 | 0.0 | 0.0 | 0.00 | 0.00 | 0.00 | 81 | 1001.6 |
| 20260509071519 | 12 | 321 | 0.0 | 0.0 | 0.00 | 0.00 | 0.00 | 81 | 1002.0 |
| 20260509070324 | 12 | 265 | 0.0 | 0.0 | 0.00 | 0.00 | 0.00 | 81 | 1002.3 |
| 20260509065751 | 12 | 266 | 0.0 | 0.0 | 0.00 | 0.00 | 0.00 | 81 | 1002.0 |
| 20260509064519 | 12 | 266 | 0.0 | 0.0 | 0.00 | 0.00 | 0.00 | 81 | 1002.0 |
| 20260509063913 | 12 | 266 | 0.0 | 0.0 | 0.00 | 0.00 | 0.00 | 81 | 1002.0 |
| 20260509063311 | 12 | 266 | 0.0 | 0.0 | 0.00 | 0.00 | 0.00 | 80 | 1002.0 |
| 20260509062719 | 12 | 193 | 0.0 | 0.0 | 0.00 | 0.00 | 0.00 | 80 | 1002.0 |
| 20260509062128 | 12 | 213 | 0.0 | 0.0 | 0.00 | 0.00 | 0.00 | 80 | 1002.0 |
| 20260509060912 | 12 | 233 | 0.0 | 0.0 | 0.00 | 0.00 | 0.00 | 79 | 1002.0 |
| 20260509060335 | 12 | 270 | 0.0 | 0.0 | 0.00 | 0.00 | 0.00 | 78 | 1002.0 |
| 20260509054513 | 12 | 269 | 0.0 | 0.0 | 0.00 | 0.00 | 0.00 | 78 | 1002.3 |
| 20260509053935 | 12 | 269 | 0.0 | 0.0 | 0.00 | 0.00 | 0.00 | 77 | 1002.3 |
| 20260509053346 | 12 | 266 | 0.0 | 0.0 | 0.00 | 0.00 | 0.00 | 78 | 1002.3 |
| 20260509052735 | 12 | 264 | 0.0 | 0.0 | 0.00 | 0.00 | 0.00 | 77 | 1002.3 |
| 20260509052136 | 13 | 263 | 0.0 | 0.0 | 0.00 | 0.00 | 0.00 | 76 | 1002.3 |
| 20260509051536 | 13 | 266 | 0.0 | 0.0 | 0.00 | 0.00 | 0.00 | 75 | 1002.3 |
| 20260509050939 | 13 | 213 | 0.0 | 0.0 | 0.00 | 0.00 | 0.00 | 75 | 1002.3 |
| 20260509045724 | 13 | 233 | 0.0 | 0.0 | 0.00 | 0.00 | 0.00 | 74 | 1002.0 |
| 20260509045135 | 13 | 233 | 0.0 | 0.0 | 0.00 | 0.00 | 0.00 | 74 | 1002.0 |
| 20260509044542 | 13 | 301 | 0.0 | 0.0 | 0.00 | 0.00 | 0.00 | 74 | 1002.3 |
| 20260509043947 | 13 | 264 | 0.0 | 0.0 | 0.00 | 0.00 | 0.00 | 74 | 1002.0 |
| 20260509043336 | 13 | 270 | 0.0 | 0.0 | 0.00 | 0.00 | 0.00 | 74 | 1002.3 |
| 20260509042740 | 13 | 271 | 0.0 | 0.0 | 0.00 | 0.00 | 0.00 | 74 | 1002.3 |
| 20260509042146 | 13 | 272 | 0.0 | 0.0 | 0.00 | 0.00 | 0.00 | 73 | 1002.3 |
| 20260509041539 | 13 | 272 | 0.0 | 0.0 | 0.00 | 0.00 | 0.00 | 72 | 1002.7 |
| 20260509040310 | 13 | 272 | 0.0 | 0.0 | 0.00 | 0.00 | 0.00 | 71 | 1002.7 |
| 20260509035750 | 13 | 268 | 0.0 | 0.0 | 0.00 | 0.00 | 0.00 | 73 | 1002.7 |
| 20260509035153 | 13 | 341 | 0.0 | 0.0 | 0.00 | 0.00 | 0.00 | 72 | 1002.7 |
| 20260509034542 | 13 | 268 | 0.0 | 0.0 | 0.00 | 0.00 | 0.00 | 71 | 1002.7 |
| 20260509033926 | 13 | 270 | 0.0 | 0.0 | 0.00 | 0.00 | 0.00 | 70 | 1002.7 |
| 20260509033318 | 14 | 276 | 0.0 | 0.0 | 0.00 | 0.00 | 0.00 | 71 | 1002.7 |
| 20260509031510 | 14 | 265 | 0.0 | 0.0 | 0.00 | 0.00 | 0.00 | 73 | 1003.0 |
| 20260509030315 | 14 | 273 | 0.0 | 0.0 | 0.00 | 0.00 | 0.00 | 72 | 1003.0 |
| 20260509025711 | 14 | 279 | 0.0 | 0.0 | 0.00 | 0.00 | 0.00 | 72 | 1003.0 |
| 20260509025140 | 14 | 275 | 0.0 | 0.0 | 0.00 | 0.00 | 0.00 | 74 | 1003.3 |
| 20260509024550 | 14 | 269 | 0.0 | 0.0 | 0.00 | 0.00 | 0.00 | 72 | 1002.7 |
| 20260509023918 | 15 | 279 | 0.0 | 0.0 | 0.00 | 0.00 | 0.00 | 71 | 1003.0 |
| 20260509023313 | 15 | 287 | 0.0 | 0.0 | 0.00 | 0.00 | 0.00 | 65 | 1003.0 |
| 20260509022717 | 15 | 273 | 0.0 | 0.0 | 0.00 | 0.00 | 0.00 | 65 | 1003.0 |
| 20260509021510 | 15 | 233 | 0.0 | 0.0 | 0.00 | 0.00 | 0.00 | 64 | 1003.0 |
| 20260509020909 | 15 | 271 | 0.0 | 0.0 | 0.00 | 0.00 | 0.00 | 64 | 1003.0 |
| 20260509020312 | 15 | 270 | 0.0 | 0.0 | 0.00 | 0.00 | 0.00 | 65 | 1003.0 |
| 20260509015739 | 15 | 274 | 0.0 | 0.0 | 0.00 | 0.00 | 0.00 | 66 | 1003.0 |
| 20260509015127 | 15 | 277 | 0.0 | 0.0 | 0.00 | 0.00 | 0.00 | 66 | 1003.0 |
| 20260509014516 | 15 | 341 | 0.0 | 0.0 | 0.00 | 0.00 | 0.00 | 64 | 1003.0 |
| 20260509013934 | 15 | 263 | 0.0 | 0.0 | 0.00 | 0.00 | 0.00 | 65 | 1003.0 |
| 20260509013344 | 15 | 275 | 0.0 | 0.0 | 0.00 | 0.00 | 0.00 | 64 | 1003.0 |
| 20260509012746 | 15 | 287 | 0.0 | 0.0 | 0.00 | 0.00 | 0.00 | 67 | 1002.7 |
| 20260509012113 | 15 | 287 | 0.0 | 0.0 | 0.00 | 0.00 | 0.00 | 64 | 1003.0 |
| 20260509010930 | 16 | 252 | 0.0 | 0.0 | 0.00 | 0.00 | 0.00 | 62 | 1002.7 |
| 20260509010308 | 16 | 260 | 0.0 | 0.0 | 0.00 | 0.00 | 0.00 | 62 | 1002.7 |
| 20260509005746 | 16 | 261 | 0.0 | 0.0 | 0.00 | 0.00 | 0.00 | 61 | 1003.0 |
| 20260509005138 | 16 | 273 | 0.0 | 0.0 | 0.00 | 0.00 | 0.00 | 64 | 1002.7 |
| 20260509004522 | 16 | 254 | 0.0 | 0.0 | 0.00 | 0.00 | 0.00 | 61 | 1002.7 |
| 20260509003315 | 16 | 271 | 0.0 | 0.0 | 0.00 | 0.00 | 0.00 | 61 | 1002.7 |
| 20260509002713 | 16 | 271 | 0.0 | 0.0 | 0.00 | 0.00 | 0.00 | 60 | 1003.0 |
| 20260509002119 | 16 | 253 | 0.0 | 0.0 | 0.00 | 0.00 | 0.00 | 59 | 1003.0 |
| 20260509001537 | 17 | 261 | 0.0 | 0.0 | 0.00 | 0.00 | 0.00 | 58 | 1003.0 |
| 20260509000941 | 17 | 254 | 0.0 | 0.0 | 0.00 | 0.00 | 0.00 | 60 | 1003.0 |
| 20260509000311 | 18 | 258 | 0.0 | 0.0 | 0.00 | 0.00 | 0.00 | 60 | 1003.0 |
| 20260508235713 | 18 | 304 | 0.0 | 0.0 | 0.00 | 0.00 | 0.00 | 57 | 1002.7 |
| 20260508235117 | 20 | 274 | 0.0 | 0.0 | 0.00 | 0.00 | 0.00 | 54 | 1002.7 |
| 20260508234534 | 21 | 255 | 0.0 | 0.0 | 0.00 | 0.00 | 0.00 | 50 | 1002.7 |
| 20260508233914 | 20 | 282 | 0.0 | 0.0 | 0.00 | 0.00 | 0.00 | 50 | 1003.0 |
| 20260508233309 | 20 | 337 | 0.0 | 0.0 | 0.00 | 0.00 | 0.00 | 53 | 1002.7 |
| 20260508232725 | 20 | 266 | 0.0 | 1.6 | 0.00 | 0.00 | 0.00 | 42 | 1002.7 |
| 20260508232135 | 21 | 308 | 3.2 | 3.2 | 0.00 | 0.00 | 0.00 | 39 | 1002.7 |
| 20260508231513 | 22 | 232 | 1.6 | 1.6 | 0.00 | 0.00 | 0.00 | 37 | 1002.7 |
| 20260508230947 | 22 | 349 | 3.2 | 3.2 | 0.00 | 0.00 | 0.00 | 40 | 1002.7 |
| 20260508230323 | 22 | 344 | 0.0 | 1.6 | 0.00 | 0.00 | 0.00 | 43 | 1002.7 |
| 20260508225749 | 21 | 308 | 3.2 | 3.2 | 0.00 | 0.00 | 0.00 | 40 | 1002.7 |
| 20260508225148 | 20 | 14 | 3.2 | 4.8 | 0.00 | 0.00 | 0.00 | 41 | 1003.0 |
| 20260508224518 | 21 | 23 | 4.8 | 6.4 | 0.00 | 0.00 | 0.00 | 40 | 1002.7 |
| 20260508223947 | 21 | 16 | 6.4 | 11.3 | 0.00 | 0.00 | 0.00 | 38 | 1003.0 |
| 20260508223318 | 22 | 343 | 6.4 | 9.7 | 0.00 | 0.00 | 0.00 | 37 | 1002.7 |
| 20260508222127 | 22 | 346 | 4.8 | 6.4 | 0.00 | 0.00 | 0.00 | 37 | 1002.7 |
| 20260508221541 | 22 | 332 | 4.8 | 4.8 | 0.00 | 0.00 | 0.00 | 38 | 1002.7 |
| 20260508220935 | 22 | 311 | 6.4 | 6.4 | 0.00 | 0.00 | 0.00 | 38 | 1003.0 |
| 20260508220310 | 22 | 2 | 8.0 | 12.9 | 0.00 | 0.00 | 0.00 | 40 | 1002.7 |
| 20260508215732 | 21 | 308 | 3.2 | 3.2 | 0.00 | 0.00 | 0.00 | 39 | 1002.7 |
| 20260508214546 | 22 | 263 | 4.8 | 9.7 | 0.00 | 0.00 | 0.00 | 38 | 1002.7 |
| 20260508213913 | 21 | 302 | 4.8 | 6.4 | 0.00 | 0.00 | 0.00 | 42 | 1003.0 |
| 20260508212116 | 22 | 320 | 4.8 | 6.4 | 0.00 | 0.00 | 0.00 | 40 | 1003.3 |
| 20260508211515 | 22 | 303 | 1.6 | 3.2 | 0.00 | 0.00 | 0.00 | 38 | 1003.0 |
| 20260508210918 | 23 | 330 | 4.8 | 6.4 | 0.00 | 0.00 | 0.00 | 41 | 1003.0 |